Tracking 25378 objects as of 22-Jan-2022
HD Live streaming from Space Station
objects crossing your sky now

STARLINK-2491

Track STARLINK-2491 now!
10-day predictions
STARLINK-2491 is classified as:


NORAD ID: 48148
Int'l Code: 2021-027BJ
Perigee: 553.4 km
Apogee: 555.3 km
Inclination: 53.1 °
Period: 95.6 minutes
Semi major axis: 6925 km
RCS: Unknown
Launch date: April 7, 2021
Source: United States (US)
Launch site: AIR FORCE EASTERN TEST RANGE (AFETR)
aabbcc
Your satellite tracking list
Your tracking list is empty




NASA's NSSDC Master Catalog

Two Line Element Set (TLE):
1 48148U 21027BJ  22021.61348819 -.00000923  00000-0 -43100-4 0  9992
2 48148  53.0555 101.6486 0001396  71.8087 288.3054 15.06404324 45105
Source of the keplerian elements: AFSPC